User: anonymous   Login
Location: Newark
(48.8604°N, 2.3376°E)
Time: 10:44:10
(UTC+00:00)
Language:

XW-2F - Orbit

View from above orbital plane
View from above orbital plane
View from above satellite
View from above satellite

Ground track
Ground track

The orbit data is extracted from the following two-line orbital elements,

1 40910U 15049M   21334.92871801  .00003207  00000-0  15239-3 0  9997
2 40910  97.4751 338.4695 0012841 315.9403 106.1217 15.19882656343007
Epoch (UTC): 30 November 2021 22:17:21
Eccentricity: 0.0012841
inclination: 97.4751°
perigee height: 497 km
apogee height: 515 km
right ascension of ascending node: 338.4695°
argument of perigee: 315.9403°
revolutions per day: 15.19882656
mean anomaly at epoch: 106.1217°
orbit number at epoch: 34300

The dashed part of the orbit path shows where the satellite is in the earth's shadow,  

DLR